Regional Weather Roundup
Issued by NWS

Home | Current Version | Previous Version | Graphics & Text | Print | Product List | Glossary On
Versions: 1 2 3 4 5 6 7 8 9 10 11 12 13 14 15 16 17 18 19 20 21 22 23 24 25 26 27 28 29 30 31 32 33 34 35 36 37 38 39 40 41 42 43 44 45 46 47 48 49 50
000
ASUS43 KIND 161300
RWRIN

WEATHER ROUNDUP FOR INDIANA
NATIONAL WEATHER SERVICE INDIANAPOLIS IN
900 AM EDT WED AUG 16 2017

NOTE: "FAIR" INDICATES FEW OR NO CLOUDS BELOW 12,000 FEET WITH NO
SIGNIFICANT WEATHER AND/OR OBSTRUCTIONS TO VISIBILITY.

* - STATION DOES NOT REPORT WEATHER SUCH AS PRECIPITATION OR FOG.

+ - STATION NOT QUALITY CONTROLLED BY THE NATIONAL WEATHER SERVICE.
    USE DATA WITH CAUTION...ESPECIALLY DEWPOINT AND RELATIVE
    HUMIDITY OBSERVATIONS.

INZ001>003-010>013-019-020-161400-
NORTHWEST INDIANA

CITY           SKY/WX    TMP DP  RH WIND       PRES   REMARKS
GARY /AIRPORT/ MOSUNNY   73  64  73 CALM      30.02S
MICHIGAN CITY+ MOSUNNY   68  68 100 CALM      30.03S
MONTICELLO +   SUNNY     71  68  91 CALM      30.01R
RENSSELAER +   SUNNY     68  63  83 CALM      30.02R

$$

LMZ046-743>745-161400-
SOUTHERN LAKE MICHIGAN

STATION/POSITION TIME  TEMP    WIND        PRES    WAVE
                       AIR SEA DIR/SP/G            HT
                 (UTC) (F)     (DEG/KT/KT) (MB)    (FT)
BURNS HARBOR     1240   71      80/  5/  8 1016.9R
MICHIGAN CITY    1230   67      60/  3/  3   N/A
5NW MICH CITY    1250   71 74   90/  6/  8   N/A     2

$$

INZ004-005-014>016-021>024-161400-
NORTH CENTRAL INDIANA

CITY           SKY/WX    TMP DP  RH WIND       PRES   REMARKS
ELKHART        SUNNY     70  64  83 CALM      30.05R
GOSHEN         SUNNY     70  64  81 E6        30.04S HAZE
SOUTH BEND     MOSUNNY   68  66  93 E5        30.04R
WARSAW +       MOSUNNY   68  66  94 CALM      30.05R

$$

INZ006>009-017-018-025>027-161400-
NORTHEAST INDIANA

CITY           SKY/WX    TMP DP  RH WIND       PRES   REMARKS
FORT WAYNE     MOSUNNY   70  65  84 E5        30.05R
KENDALLVILLE + MOSUNNY   69  66  90 SE5       30.07R

$$

INZ028-029-035-036-043>045-051>053-161400-
WEST CENTRAL INDIANA

CITY           SKY/WX    TMP DP  RH WIND       PRES   REMARKS
LAFAYETTE      SUNNY     72  70  93 CALM      30.01R
TERRE HAUTE    MOSUNNY   72  69  90 CALM      30.02R FOG

$$

INZ030>032-037>040-046>048-054>057-064-065-161400-
CENTRAL INDIANA

CITY           SKY/WX    TMP DP  RH WIND       PRES   REMARKS
COLUMBUS       SUNNY     70  68  94 CALM      30.03R
GREENWOOD *+   SUNNY     75  70  84 CALM      30.04R
INDIANAPOLIS   MOSUNNY   76  69  79 CALM      30.02R
-EAGLE CREEK   SUNNY     76  68  76 CALM      30.03R
KOKOMO +       SUNNY     72  69  90 CALM      30.05R
MT COMFORT *+  SUNNY     70  68  94 CALM      30.04R
SHELBYVILLE    SUNNY     75  69  81 CALM      30.03R

$$

INZ033-034-041-042-049-050-058-059-161400-
EAST CENTRAL INDIANA

CITY           SKY/WX    TMP DP  RH WIND       PRES   REMARKS
MUNCIE         SUNNY     76  69  79 VRB3      30.04R
RICHMOND +     SUNNY     72  70  94 CALM      30.07R

$$

INZ060-061-067>069-081>083-085>088-161400-
SOUTHWEST INDIANA

CITY           SKY/WX    TMP DP  RH WIND       PRES   REMARKS
EVANSVILLE     CLOUDY    75  72  90 CALM      30.01S FOG
HUNTINGBURG *+ PTSUNNY   73  71  93 S6        30.02R

$$

INZ062-063-066-070>080-084-089>092-161400-
SOUTH CENTRAL AND SOUTHEAST INDIANA

CITY           SKY/WX    TMP DP  RH WIND       PRES   REMARKS
BLOOMINGTON    CLOUDY    74  69  85 S5        30.03R
MADISON *+     MOSUNNY   73  70  88 CALM      30.06R
SEYMOUR +      SUNNY     73  73 100 CALM      30.03R

$$





USA.gov is the U.S. government's official web portal to all federal, state and local government web resources and services.